Home   Weather   Latakia   Past weeks
Flag for Syria

Past Weather in Latakia, Syria — Yesterday and Last 2 Weeks

Now
63 °F

Sunny.


Feels Like: 63 °F
Forecast: 62 / 51 °F
Wind: 5 mph from Northwest

Location: Lattakia Airport

Current Time: Jan 22, 2019 at 12:37:59 pm

Latest Report: Jan 22, 2019 at 12:00 pm


Visibility: 10 mi

Pressure: 30.04 "Hg

Humidity: 49%

Dew Point: 43 °F

Location of LatakiaLocation

Past Weather in Latakia — Graph

°F

Latakia Temperature Yesterday

Maximum temperature yesterday: 61 °F (at 2:00 pm)
Minimum temperature yesterday: 45 °F (at 6:00 am)
Average temperature yesterday: 51 °F

High & Low Weather Summary for the Past Weeks

 TemperatureHumidityPressure
High64 °F (Jan 12, 12:00 pm)94% (Jan 8, 3:00 am)30.33 "Hg (Jan 8, 3:00 am)
Low37 °F (Jan 19, 7:00 am)32% (Jan 12, 1:00 pm)29.59 "Hg (Jan 16, 12:00 pm)
Average51 °F66%29.98 "Hg
* Reported Jan 7 11:00 am — Jan 22 11:00 am, Latakia. Weather by CustomWeather, © 2019

Note: Actual official high and low records may vary slightly from our data, if they occured in-between our weather recording intervals... More about our weather records

Advertising

Latakia Weather History for the Previous 24 Hours

Scroll right to see more
 ConditionsComfort  
Time TempWeatherWind HumidityBarometerVisibility
11:00 am
Tue, Jan 22
59 °FSunny.6 mph51%30.04 "Hg10 mi
10:00 am57 °FSunny.7 mph55%30.04 "Hg10 mi
9:00 am50 °FSunny.12 mph67%30.04 "Hg10 mi
8:00 am45 °FSunny.5 mph81%30.04 "Hg10 mi
7:00 am43 °FScattered clouds.3 mph76%30.04 "HgN/A
6:00 am43 °FPassing clouds.7 mph76%30.04 "HgN/A
5:00 am43 °FPassing clouds.7 mph81%30.04 "HgN/A
4:00 am45 °FPassing clouds.5 mph76%30.04 "HgN/A
3:00 am45 °FPassing clouds.9 mph76%30.07 "HgN/A
2:00 am45 °FPassing clouds.9 mph71%30.07 "HgN/A
11:00 pm
Mon, Jan 21
46 °FPassing clouds.5 mph66%30.07 "HgN/A
10:00 pm46 °FClear.8 mph66%30.07 "Hg10 mi
9:00 pm48 °FPassing clouds.5 mph62%30.09 "HgN/A
8:00 pm48 °FPassing clouds.5 mph62%30.09 "HgN/A
7:00 pm52 °FPassing clouds.5 mph54%30.07 "HgN/A
5:00 pm54 °FClear.7 mph63%30.04 "Hg10 mi
4:00 pm57 °FSunny.7 mph48%30.07 "Hg10 mi
2:00 pm61 °FSunny.9 mph45%30.07 "Hg10 mi
1:00 pm59 °FSunny.12 mph48%30.07 "Hg10 mi
12:00 pm59 °FSunny.9 mph45%30.09 "Hg10 mi
Weather by CustomWeather, © 2019

See weather overview